CAPE
0 0 0 0 0 0 0 0 0 0 0 0 0 0 0 0 141 184 204 232 136 244 258 343 463 460 355 276 363 348 392 422 402 376 389 566 676 748 862 819 922 924 851 880 1065 1079 1072 1048 1539 1702 1776 1827 1983 1983 1975 2028 2038 2042 2130 2162 2148 2147 2168 2201 2194 2187 2076 2037 2083 1886 1984 2038 1960 1881 1796 1764 1728 1775 1712 1654 1553 1632 1736 1564 1354 1318 1250 1199 1113 1019 963 1085 1088 912 863 756 774
0 0 0 0 0 0 0 0 0 0 0 0 0 85 133 146 199 163 209 259 259 272 230 323 390 432 366 164 220 366 474 540 486 563 609 754 736 804 774 838 890 856 890 877 1029 1029 1010 1247 1678 1872 1708 1794 1656 1908 2035 2054 2088 2146 2139 2109 2092 2090 2152 2201 2182 2265 2262 2035 2047 1974 1926 1938 1946 2048 2012 1873 1714 1739 1478 1492 1672 1691 1784 1766 1659 1260 1099 942 983 1043 1072 1125 1072 1133 988 1040 958
0 0 0 0 0 0 0 0 0 0 0 0 0 122 158 222 224 214 262 257 249 220 304 332 263 171 408 395 382 392 568 641 645 658 765 753 710 639 798 874 820 924 889 963 1059 958 1217 1222 1474 1317 1310 1370 1811 2066 2062 2184 2141 2073 2147 2220 2212 2144 2118 2060 2128 2199 2170 2001 1803 1710 1604 1820 1824 1752 1748 1821 1697 1662 1540 1723 1575 1705 1620 1603 1667 1671 1480 1194 1061 828 997 1174 1262 1103 1029 1087 1128
0 0 0 0 0 0 0 0 0 0 0 0 0 82 151 249 225 285 282 230 211 204 208 163 315 22 409 411 404 404 545 642 665 804 762 802 763 711 770 680 886 982 1000 1039 1104 1140 1195 1028 1012 1492 1354 1320 1382 1622 1671 1839 2208 2115 2225 2266 2289 2284 2311 2202 2115 1861 1967 1893 1568 1603 1486 1767 1636 1480 1422 1512 1704 1728 1663 1621 1610 1540 1628 1532 1515 1465 1485 1431 1261 1164 1219 1262 1021 1236 1159 1525 1486
0 0 0 0 0 0 0 0 0 0 0 0 0 12 192 259 258 314 266 233 187 279 275 251 324 320 438 416 495 475 500 605 744 798 857 870 835 748 658 618 868 960 995 1051 1128 1210 1132 1057 1074 1160 1298 1443 1469 1515 1783 1804 2130 2181 2166 2117 2188 2227 2146 1962 1880 1930 1893 1637 1695 1685 1536 1557 1427 1538 1397 1629 1534 1673 1739 1684 1670 1530 1497 1500 1209 1379 1374 1219 1403 1235 1124 1099 1280 1159 1230 1319 1312
0 0 0 0 0 0 0 0 0 0 0 1 0 94 167 251 338 251 218 324 347 158 322 217 301 308 449 465 518 552 592 644 659 869 869 783 748 720 671 719 880 957 1032 1102 1154 1185 1091 1268 1431 1303 1310 1610 1696 1783 1868 1992 2104 2080 2005 1996 1972 1984 1976 1965 1817 1948 1590 1841 1733 1973 2016 1945 1902 1894 1761 1655 1658 1619 1642 1522 1490 1551 1427 1284 1362 1062 1141 1342 1419 1098 1191 1121 960 1326 1294 1231 1096
0 0 0 0 0 0 0 0 0 0 0 0 0 5 195 284 414 308 275 319 137 264 243 132 288 256 304 337 457 622 628 707 701 688 767 699 656 511 849 868 924 993 1027 1046 1112 1076 1026 1211 1171 1557 1598 1759 1796 1830 1816 1964 1856 1923 1849 1868 1840 1924 1873 1764 1729 1786 1800 1778 1733 1680 1732 1772 1727 1856 1816 1712 1698 1598 1611 1571 1594 1460 1478 1418 1128 1143 1048 1190 1213 894 854 1047 1261 1238 1416 1332 1273
0 0 0 0 0 0 0 0 0 0 0 1 10 164 263 329 281 252 187 248 178 298 264 319 228 43 286 436 345 560 633 675 761 706 735 678 472 524 748 829 921 971 946 962 905 1018 1082 1361 1426 1519 1605 1680 1834 1835 1924 1876 1818 1808 1782 1768 1871 1838 1781 1800 1714 1716 1750 1695 1660 1731 1665 1605 1652 1755 1737 1652 1591 1534 1449 1396 1324 1318 1366 1395 1458 1452 973 1118 1275 1173 1310 1222 1148 1202 1351 1368 1136
0 0 0 0 0 0 0 0 2 0 2 9 39 201 250 222 232 217 188 228 241 254 226 260 15 279 90 442 538 573 666 683 756 668 528 502 635 825 841 862 864 877 943 1042 1013 1108 1220 1304 1560 1599 1602 1690 1713 1710 1705 1776 1800 1853 1852 1873 1812 1882 1784 1786 1814 1782 1696 1742 1742 1742 1702 1696 1649 1631 1656 1633 1551 1532 1494 1334 1262 1289 1315 1421 1418 1366 1348 1357 1365 1354 1227 1187 914 1175 1308 1276 1279
0 0 0 0 0 0 0 0 0 20 16 9 15 49 118 147 239 238 195 216 260 236 240 349 280 321 362 333 412 629 676 753 686 544 576 653 710 881 813 835 819 872 958 1011 1049 1181 1191 1156 1567 1597 1736 1838 1760 1790 1848 1842 1866 1874 1846 1792 1764 1766 1772 1850 1796 1758 1749 1694 1709 1674 1712 1678 1572 1609 1544 1437 1401 1464 1468 1534 1311 1256 1366 1375 1424 1574 1385 1372 1328 1193 1287 1196 1036 1283 1289 1321 1250
0 0 0 0 0 0 0 0 0 0 8 0 2 5 72 191 215 258 278 247 296 316 244 359 377 332 309 362 491 713 794 710 627 594 484 654 775 777 830 876 887 950 922 931 1040 1160 1159 1257 1372 1613 1650 1772 1803 1843 1899 1910 1900 1838 1683 1691 1628 1578 1620 1561 1571 1579 1536 1456 1670 1713 1664 1690 1595 1616 1604 1539 1482 1412 1363 1351 1452 1436 1384 1375 1405 1552 1459 1533 1379 1397 1286 1149 1313 1304 1262 1236 1208
0 0 0 0 0 0 0 0 0 0 0 0 4 91 138 313 234 243 267 235 246 244 272 240 444 376 353 460 578 712 670 596 529 435 481 738 836 680 795 833 931 1026 1000 971 979 1046 1098 1106 1211 1506 1471 1705 1877 1831 1771 1801 1762 1500 1328 1240 1130 1169 1538 1577 1536 1576 1245 1198 1587 1639 1604 1484 1481 1653 1635 1603 1513 1590 1528 1420 1459 1458 1457 1450 1511 1583 1502 1500 1340 1441 1346 1267 1379 1353 1341 1372 1410
0 0 0 0 0 0 0 0 0 15 113 99 160 216 293 316 286 240 252 114 259 326 346 300 411 445 352 392 552 651 641 586 545 476 496 596 619 703 651 844 903 834 796 796 727 801 926 937 994 1056 1158 1380 1476 1785 1762 1695 1610 1365 1182 1122 1098 1107 1241 1657 1712 1555 1297 1391 1290 1347 1338 1417 1527 1480 1430 1556 1598 1663 1699 1463 1604 1470 1707 1730 1641 1619 1522 1357 1416 1496 1312 1198 1114 1281 1411 1361 1470
0 0 0 0 0 0 0 0 0 149 102 170 156 235 257 330 306 305 244 250 261 369 380 384 461 504 474 467 514 331 477 518 558 522 450 489 606 754 699 775 805 770 688 591 627 750 790 756 776 896 876 851 1116 1351 1503 1880 1638 1582 1274 1274 1306 1210 1294 1407 1441 1275 1400 1459 1476 1409 1436 1505 1526 1476 1347 1443 1328 1600 1516 1433 1582 1676 1667 1676 1577 1446 1375 1474 1360 1487 1462 1424 1392 1282 1325 1462 1518
0 0 0 0 0 0 0 20 28 127 141 169 102 186 264 267 284 306 305 328 338 405 426 394 437 376 499 492 468 393 358 544 460 524 552 448 533 617 672 627 717 655 575 556 659 701 686 751 842 929 910 850 976 1101 1173 1503 1448 1556 1523 1447 1352 1431 1418 1704 1758 1539 1468 1411 1359 1343 1534 1551 1522 1700 1761 1775 1708 1538 1774 1753 1598 1745 1794 1685 1654 1616 1632 1688 1534 1677 1647 1588 1502 1660 1646 1564 1504
0 0 0 0 0 0 0 0 0 0 1 98 207 268 271 357 356 353 400 475 475 446 394 474 437 478 334 366 417 486 560 567 542 511 479 457 460 518 584 617 621 633 639 611 591 719 742 841 887 885 915 1030 1026 944 1017 1369 1919 2005 2012 1736 1576 1704 1932 2089 2192 2102 2005 1823 1618 1950 1989 1737 1660 1561 1968 2024 1847 1950 1735 1746 1812 1846 1873 1773 1708 1566 1581 1618 1562 1569 1810 1924 1655 1798 2004 2013 2038
0 0 0 0 6 0 1 0 38 118 18 170 227 315 332 374 402 505 529 600 461 484 448 333 427 358 375 475 497 549 594 586 528 519 470 421 456 536 564 538 558 585 600 611 666 791 847 801 772 790 889 915 983 1162 1124 1122 1776 1380 1816 2070 2010 1912 2047 2136 1826 1758 1537 1665 1983 2132 1591 1271 1181 1595 1789 1988 2007 2050 1872 1906 2034 1764 1831 1950 1670 1953 1905 1897 2014 2024 2054 1946 2062 2068 2213 2273 2320
0 0 0 0 0 4 0 6 71 98 126 242 278 326 315 434 452 448 458 500 514 524 574 404 344 349 362 452 539 618 549 574 513 491 437 456 505 536 569 528 593 647 606 609 675 707 681 632 678 743 831 972 1250 1339 1185 946 911 1107 1024 1111 1520 1633 1692 1240 1234 1131 1164 997 1086 940 754 991 893 1555 1868 2456 1724 1974 1940 2108 2091 2052 1943 2170 1829 1459 1559 1808 1751 1742 1857 1940 1994 2089 2016 1666 1326
0 0 0 0 0 57 140 237 72 145 230 304 342 373 321 358 409 399 504 449 458 510 481 362 317 319 411 538 550 540 523 502 489 459 470 475 501 473 515 604 759 780 739 733 779 807 807 735 731 794 762 945 1107 1313 1095 1031 917 910 872 861 857 960 1181 845 576 672 595 568 486 452 620 614 714 942 1732 1858 1703 1168 1250 1451 1503 1495 1516 1559 1113 945 998 1082 980 1110 1430 1476 1319 1263 758 693 697
0 0 0 0 0 217 367 239 266 191 237 334 388 396 350 333 379 402 526 513 407 416 331 322 312 309 430 510 521 484 501 473 383 417 431 401 427 497 580 742 835 843 829 813 832 889 880 703 811 995 944 852 930 746 818 882 862 782 671 665 656 667 671 635 560 464 500 470 421 344 422 532 676 781 767 918 538 474 449 488 795 671 659 924 879 370 388 433 419 441 468 592 377 412 464 496 509
0 0 0 93 203 276 240 208 222 233 312 380 408 450 409 379 413 474 554 445 464 400 347 462 255 320 339 387 448 475 472 424 341 415 418 458 489 543 645 717 756 759 797 832 853 890 815 798 839 904 900 1032 833 946 985 790 695 608 505 447 440 452 456 473 478 440 427 405 355 312 328 382 404 416 396 402 408 416 415 404 384 346 337 342 512 351 363 348 354 376 389 354 336 162 72 351 392
0 1 149 224 192 193 219 259 262 322 334 392 428 428 390 407 402 398 380 359 374 377 375 415 403 338 392 380 464 434 439 398 405 433 393 373 417 557 708 761 821 871 843 849 862 874 891 763 773 630 681 549 809 749 952 1476 635 358 358 303 159 264 301 296 282 346 388 406 388 355 300 295 351 378 376 370 355 356 348 365 385 408 393 365 349 354 364 336 306 302 327 317 114 0 0 2 38
11 40 261 217 190 239 229 228 288 316 343 349 352 339 315 327 366 324 305 321 299 315 362 96 96 389 377 403 481 450 403 382 385 323 313 415 590 734 815 856 830 797 799 822 866 911 855 622 642 653 810 606 545 501 841 958 885 802 653 418 197 134 76 91 115 272 338 359 376 372 363 330 321 298 317 314 311 307 296 322 353 383 396 374 340 361 381 367 341 294 290 287 146 0 0 0 113
0 42 79 237 239 238 251 53 245 313 348 303 276 15 289 239 354 272 287 263 66 43 377 23 383 378 386 461 517 460 362 424 437 457 492 589 726 737 767 802 720 742 755 825 871 860 722 674 596 45 252 416 546 622 456 402 350 318 270 199 0 12 0 0 0 71 248 274 289 319 348 353 346 334 321 319 302 316 294 296 298 324 337 326 288 352 329 343 326 304 243 262 276 265 219 234 259
11 28 59 86 71 130 313 312 279 251 274 195 167 103 235 216 306 222 208 36 53 346 391 341 388 398 447 568 501 477 520 555 629 689 628 755 803 811 744 638 650 680 693 695 690 705 607 467 396 299 515 514 484 370 307 207 102 0 0 0 0 2 0 0 0 0 0 186 184 195 225 264 288 295 311 267 255 239 261 244 236 245 269 247 240 121 90 0 102 206 0 0 0 116 250 240 241
32 60 28 9 1 331 332 270 274 228 184 238 193 54 203 169 194 132 25 160 288 305 394 357 412 310 450 556 621 649 651 638 597 586 699 793 755 684 614 582 545 553 548 525 442 414 262 219 198 351 402 344 249 40 0 0 0 0 0 0 0 0 0 0 0 0 0 0 0 0 0 0 0 128 162 145 0 0 0 0 0 0 0 0 0 0 0 0 0 0 0 0 0 0 0 0 0
0 0 1 5 238 138 285 205 3 206 90 34 25 28 54 120 175 25 174 198 288 294 310 391 460 467 501 556 698 668 695 654 538 624 753 687 615 592 477 446 423 471 516 520 438 346 271 205 44 154 202 224 174 142 0 0 0 0 0 0 0 0 0 0 0 0 0 0 0 0 0 0 0 0 0 0 0 0 0 0 0 0 0 0 0 0 0 0 0 0 0 0 0 0 0 0 0
2 4 4 61 30 217 245 251 196 59 39 57 55 94 88 245 213 102 198 239 277 286 316 414 480 475 382 459 626 696 718 655 651 654 715 557 533 525 381 55 6 0 295 375 318 182 141 0 0 0 0 154 196 206 0 0 0 0 0 0 0 0 0 0 0 0 0 0 0 0 0 0 0 0 0 0 0 0 0 0 0 0 0 0 0 0 0 0 0 0 0 0 0 0 0 0 0
0 2 68 75 46 4 3 138 138 49 12 132 35 164 105 171 109 175 138 178 227 241 379 512 336 232 278 344 524 699 710 671 634 708 594 572 559 474 42 0 0 0 0 0 150 78 0 0 0 0 0 0 0 22 26 0 0 0 0 0 0 0 0 0 0 0 0 0 0 0 0 0 0 0 0 0 0 0 0 0 0 0 0 0 0 0 0 0 0 0 0 0 0 0 0 0 0
0 0 2 0 0 0 26 38 61 25 20 224 255 27 24 74 126 143 199 231 221 198 475 354 247 367 337 378 482 590 548 636 539 554 542 530 424 14 0 0 0 0 0 0 0 0 0 0 0 0 0 0 0 0 0 0 0 0 0 0 0 0 0 0 0 0 0 0 0 0 0 0 0 0 0 0 0 0 0 0 0 0 0 0 0 0 0 0 0 0 0 0 0 0 0 0 0
0 0 13 5 0 4 31 128 26 11 1 0 25 8 31 24 17 159 193 184 139 177 330 218 224 354 396 442 497 511 518 550 441 558 408 26 23 0 0 0 0 0 0 0 0 0 0 0 0 0 0 0 0 0 0 0 0 0 0 0 0 0 0 0 0 0 0 0 0 0 0 0 0 0 0 0 0 0 0 0 0 0 0 0 0 0 0 0 0 0 0 0 0 0 0 0 0
0 0 0 0 0 0 34 159 59 60 10 4 3 5 51 30 0 87 170 143 91 100 222 4 35 313 322 362 466 484 480 505 439 383 237 0 0 0 0 0 0 0 0 0 0 0 0 0 0 0 0 0 0 0 0 0 0 0 0 0 0 0 0 0 0 0 0 0 0 0 0 0 0 0 0 0 0 0 0 0 0 0 0 0 0 0 0 0 0 0 0 0 0 0 0 0 0
0 80 0 0 0 0 6 5 69 76 43 0 0 0 18 40 8 54 109 107 113 12 158 176 0 48 249 374 485 465 434 436 431 150 0 0 0 0 0 0 0 0 0 0 0 0 0 0 0 0 0 0 0 0 0 0 0 0 0 0 0 0 0 0 0 0 0 0 0 0 0 0 0 0 0 0 0 0 0 0 0 0 0 0 0 0 0 0 0 0 0 0 0 0 0 0 0
0 0 0 0 0 0 0 0 13 14 0 0 0 0 12 12 43 25 0 53 100 16 165 221 140 122 233 355 442 414 443 447 391 23 0 0 0 0 0 0 0 0 0 0 0 0 0 0 0 0 0 0 0 0 0 0 0 0 0 0 0 0 0 0 0 0 0 0 0 0 0 0 0 0 0 0 0 0 0 0 0 0 0 0 0 0 0 0 0 0 0 0 0 0 0 0 0
0 0 0 0 0 0 0 2 0 0 0 0 0 1 10 52 15 6 8 42 126 186 156 198 258 279 266 252 354 304 301 335 275 117 0 0 0 0 0 0 0 0 0 0 0 0 0 0 0 0 0 0 0 0 0 0 0 0 0 0 0 0 0 0 0 0 0 0 0 0 0 0 0 0 0 0 0 0 0 0 0 0 0 0 0 0 0 0 0 0 0 0 0 0 0 0 0
0 0 0 0 0 0 0 0 0 0 0 0 0 0 33 43 2 0 62 0 0 179 0 56 276 348 344 324 293 267 239 222 99 0 0 0 0 0 0 0 0 0 0 0 0 0 0 0 0 0 0 0 0 0 0 0 0 0 0 0 0 0 0 0 0 0 0 0 0 0 0 0 0 0 0 0 0 0 0 0 0 0 0 0 0 0 0 0 0 0 0 0 0 0 0 0 0
0 0 0 0 0 0 0 0 1 0 0 0 0 0 19 46 2 1 0 66 22 0 175 237 270 340 345 310 273 178 0 0 0 0 0 0 0 0 0 0 0 0 0 0 0 0 0 0 0 0 0 0 0 0 0 0 0 0 0 0 0 0 4 0 0 0 0 0 0 0 0 0 0 0 0 0 0 0 0 0 0 0 0 0 0 0 0 0 0 0 0 0 0 0 0 0 0
0 0 0 0 0 0 0 0 4 0 0 0 0 1 1 3 0 0 0 0 0 69 75 261 271 312 336 286 255 0 0 0 0 0 0 0 0 0 0 0 0 0 0 0 0 0 0 0 0 0 0 0 0 0 0 0 0 0 0 0 0 0 0 0 0 0 0 0 0 0 0 0 0 0 0 0 0 0 0 0 0 0 0 0 0 0 0 0 0 0 0 0 0 0 0 0 0
0 0 0 0 0 0 0 0 0 0 0 0 0 0 0 0 0 0 0 0 0 0 1 237 297 310 311 288 256 0 0 0 0 0 0 0 0 0 0 0 0 0 0 0 0 0 0 0 0 0 0 0 0 0 0 0 0 0 0 0 0 0 0 0 0 0 0 0 0 0 0 0 0 0 0 0 0 0 0 0 0 0 0 0 0 0 0 0 0 0 0 0 0 0 0 0 0
0 0 0 0 0 0 0 0 0 0 0 0 0 0 0 0 0 0 0 0 0 0 0 167 293 323 291 279 276 0 0 0 0 0 0 0 0 0 0 0 0 0 0 0 0 0 0 0 0 0 0 0 0 5 1 0 0 0 0 0 0 0 0 0 0 0 0 0 0 0 0 0 0 0 0 0 0 0 0 0 0 0 0 0 0 0 0 0 0 0 0 0 0 0 0 0 0
0 0 0 0 0 0 0 0 0 0 0 0 0 0 0 0 0 0 0 0 0 0 0 0 0 312 148 0 0 0 0 0 0 0 0 0 0 0 0 0 0 0 0 0 0 0 0 0 0 0 0 0 0 0 0 0 0 0 0 0 0 0 0 0 0 0 0 0 0 0 0 0 0 0 0 0 0 0 0 0 0 0 0 0 0 0 0 0 0 0 0 0 0 0 0 0 0
0 0 0 0 0 0 0 0 0 0 0 0 0 0 0 0 0 0 0 0 0 0 0 0 0 0 0 0 0 0 0 0 0 0 0 0 0 0 0 0 0 0 0 0 0 0 0 0 0 0 0 0 0 0 0 0 0 0 0 0 0 0 0 0 0 0 0 0 0 0 0 0 0 0 0 0 0 0 0 0 0 0 0 0 0 0 0 0 0 0 0 0 0 0 0 0 0
0 0 0 0 0 0 0 0 0 0 11 0 0 0 0 0 0 0 0 0 0 0 0 0 0 0 0 0 0 0 0 0 0 0 0 0 0 0 0 0 0 0 0 0 0 0 0 0 0 0 0 0 0 0 0 0 0 0 0 0 0 0 0 0 0 0 0 0 0 0 0 0 0 0 0 0 0 0 0 0 0 0 0 0 4 0 0 0 0 0 0 0 0 0 0 0 0
0 0 0 0 0 0 0 0 0 0 0 0 0 0 0 0 0 0 0 0 0 0 0 0 0 0 0 0 0 0 0 0 0 0 0 0 0 0 0 0 0 0 0 0 0 0 0 0 0 0 0 0 0 0 0 0 0 0 0 0 0 0 0 0 0 0 0 0 0 0 0 0 0 0 0 0 0 0 1 1 0 0 0 0 34 0 0 0 0 0 0 0 0 0 0 0 0
0 0 0 0 0 0 0 0 0 0 0 0 0 0 0 0 0 0 0 0 0 0 0 0 0 0 0 0 0 0 0 0 0 0 0 0 0 0 0 0 0 0 0 0 0 0 0 0 0 0 0 0 0 1 0 0 0 0 0 0 0 0 0 0 0 0 0 0 0 0 0 0 0 0 0 0 0 0 3 0 0 0 0 0 18 0 0 0 0 0 0 0 0 0 0 0 0
0 0 0 0 0 0 0 0 0 0 0 0 0 0 0 0 0 0 0 0 0 0 0 0 0 0 0 0 0 0 0 0 0 0 0 0 0 0 0 0 0 0 0 0 0 0 0 0 0 0 0 0 0 0 0 0 0 0 0 0 0 0 0 0 0 0 0 0 0 0 0 0 0 0 0 0 0 0 0 0 0 0 0 0 17 0 0 0 0 0 0 0 0 0 0 0 0
0 0 0 0 0 0 0 0 0 0 0 0 0 0 0 0 0 0 0 0 0 0 0 0 0 0 0 0 0 0 0 0 0 0 0 0 0 0 0 0 0 0 0 0 0 0 0 0 0 0 0 0 0 0 0 0 0 0 0 0 0 0 0 0 0 0 0 0 0 0 0 0 0 0 0 0 0 0 0 1 0 0 0 0 0 0 0 0 0 0 0 0 0 0 0 0 0
0 0 0 0 0 0 0 0 0 0 0 0 0 0 0 0 0 0 0 0 0 0 0 0 0 0 0 0 0 0 0 0 0 0 0 0 0 0 0 0 0 0 0 0 0 0 0 0 0 0 0 0 0 0 0 0 0 0 0 0 0 0 0 0 0 0 0 0 0 0 0 0 0 0 0 0 0 0 0 0 0 0 0 0 0 0 0 0 0 0 0 0 0 0 0 0 0
0 0 0 0 0 0 0 0 0 0 0 0 0 0 0 0 0 0 0 0 0 0 0 0 0 0 0 0 0 0 0 0 0 0 0 0 0 0 0 0 0 0 0 0 0 0 0 0 0 0 0 0 0 0 0 0 0 0 0 0 0 0 0 0 0 0 0 0 0 0 0 0 0 0 0 0 0 0 0 0 0 0 0 0 0 0 0 0 0 0 0 0 0 0 0 0 0
0 0 0 0 0 0 0 0 0 0 0 0 0 0 0 0 0 0 0 0 0 0 0 0 0 0 0 0 0 0 0 0 0 0 0 0 78 0 7 3 0 0 0 0 0 0 0 0 0 0 0 0 0 0 0 0 0 0 0 0 0 0 0 0 0 0 0 0 0 0 0 0 0 0 0 0 0 0 0 0 0 0 0 0 0 0 0 0 0 0 0 0 0 0 0 0 0
0 0 0 0 0 0 0 0 0 0 0 0 0 0 0 0 0 0 0 0 0 0 0 0 0 0 0 0 0 0 0 0 0 0 0 173 132 47 33 3 0 0 0 0 0 0 0 0 0 0 0 0 0 0 0 0 0 0 0 0 0 0 0 0 0 0 0 0 0 0 0 0 0 0 0 0 0 0 0 0 0 0 0 0 0 0 0 0 0 0 0 0 0 0 0 0 0
0 0 0 0 0 0 5 0 0 0 0 0 0 0 0 0 0 0 0 0 0 0 0 0 0 0 0 0 0 0 0 0 0 0 0 125 183 0 54 11 0 0 0 0 0 0 0 0 0 0 0 0 0 0 0 0 0 0 0 0 0 0 0 0 0 0 0 0 0 0 0 0 0 0 0 0 0 0 0 0 0 0 0 0 0 0 0 0 0 0 0 0 0 0 0 0 0
0 0 0 0 0 0 0 0 0 0 0 0 0 0 0 0 0 0 0 0 0 0 0 0 0 0 0 0 0 0 0 0 0 0 0 18 173 19 82 13 3 0 0 0 0 0 0 0 0 0 0 0 0 0 0 0 0 0 0 0 0 0 0 8 0 0 0 0 0 0 0 0 0 0 0 0 0 0 0 0 0 0 0 0 0 0 0 0 0 0 0 0 0 0 0 0 0
0 0 0 0 0 0 0 0 0 0 0 0 0 0 0 0 0 0 0 0 0 0 0 0 0 0 0 0 0 0 0 0 0 0 0 170 217 164 78 26 4 0 0 0 0 0 0 0 0 0 0 0 0 0 0 0 0 0 0 0 2 7 9 15 2 0 0 0 0 0 0 0 0 0 0 0 0 0 0 0 0 0 0 0 0 0 0 0 0 0 0 0 0 0 0 0 0
0 0 0 8 10 24 0 0 0 0 0 0 0 0 0 0 0 0 0 0 0 0 0 0 0 0 0 0 0 0 0 0 0 0 0 0 0 49 92 33 10 0 0 0 0 0 0 0 0 0 0 0 0 0 0 0 0 0 0 3 9 16 17 16 4 0 0 0 0 0 0 0 0 0 0 0 0 0 0 0 0 0 0 0 0 0 0 0 0 0 0 0 0 0 0 0 0
0 0 0 0 0 0 0 0 0 0 0 0 0 0 0 0 0 0 0 0 0 0 0 0 0 0 0 0 0 0 0 0 0 0 0 0 104 94 0 49 10 0 0 0 0 0 0 0 0 0 0 0 0 0 0 0 0 0 0 1 4 8 11 10 0 0 0 0 0 0 0 0 0 0 0 0 0 0 0 0 0 0 0 0 0 0 0 0 0 0 0 0 0 0 0 0 0
0 0 0 0 0 0 0 0 0 0 0 0 0 0 0 0 0 0 0 0 0 0 0 0 0 0 0 0 0 0 0 0 0 0 0 0 0 54 0 0 5 0 0 0 0 0 0 0 0 0 0 0 0 0 0 0 0 0 0 0 0 0 0 0 0 0 0 0 0 0 0 0 0 0 0 0 0 0 0 0 0 0 0 0 0 0 0 0 0 0 0 0 0 0 0 0 0
0 0 0 0 0 10 0 0 0 0 0 0 0 0 0 0 0 0 0 0 0 0 0 0 0 0 0 0 0 0 0 0 0 0 0 0 0 10 6 2 0 0 0 0 0 0 0 0 0 0 0 0 0 0 0 0 0 0 0 0 0 0 12 9 0 0 0 0 0 0 0 0 0 0 0 0 0 0 0 0 1 0 0 0 0 0 0 0 0 0 0 0 0 0 0 0 0
Wind_Speed
nan nan nan nan nan nan nan nan nan nan nan nan nan nan nan nan 32 36 35 32 36 34 34 33 36 33 30 28 36 39 36 34 32 33 27 28 29 34 33 33 34 35 34 32 32 32 31 35 40 39 39 37 33 31 31 30 29 28 28 30 31 32 34 35 35 35 34 32 31 30 30 29 29 28 27 26 22 20 20 21 22 22 22 22 23 25 27 29 28 27 27 28 28 28 28 28 28
nan nan nan nan nan nan nan nan nan nan nan nan nan nan 34 34 37 38 39 40 37 34 32 33 35 36 37 37 37 34 38 36 34 33 30 31 34 34 33 35 37 37 34 33 32 34 35 33 39 40 38 34 32 30 30 30 30 30 29 29 30 31 32 33 33 32 31 29 27 27 27 27 26 26 27 25 23 20 20 21 21 21 20 21 22 24 26 27 27 27 26 27 27 26 26 26 26
nan nan nan nan nan nan nan nan nan nan nan nan nan 35 33 41 40 40 37 38 36 31 31 33 36 33 34 37 37 34 32 36 35 33 34 32 34 33 36 38 37 33 33 33 34 35 34 36 39 37 30 30 30 30 30 30 31 31 31 31 31 31 31 30 29 29 28 27 27 26 24 24 22 22 21 24 22 22 21 21 25 21 21 22 23 24 23 24 23 25 25 24 24 24 24 24 23
nan nan nan nan nan nan nan nan nan nan nan nan nan nan 37 37 37 35 36 35 34 33 33 35 36 nan 36 40 33 27 33 32 33 33 33 32 33 36 39 38 37 33 34 34 33 33 33 37 34 32 30 27 30 31 31 32 31 32 33 34 34 33 31 29 28 26 26 27 26 24 23 23 22 22 18 21 21 22 22 23 24 22 23 21 24 24 24 24 24 24 24 22 21 23 23 23 23
nan nan nan nan nan nan nan nan nan nan nan nan nan nan 36 36 34 33 32 32 34 36 37 32 33 33 34 37 32 30 30 28 34 33 32 33 35 39 40 36 35 37 37 34 33 32 31 38 35 35 35 33 32 33 33 32 32 33 33 33 33 33 31 29 27 26 24 25 22 23 22 23 21 21 20 21 21 21 23 22 22 22 23 24 25 23 23 23 23 18 22 22 24 22 22 21 21
nan nan nan nan nan nan nan nan nan nan nan nan nan nan 33 34 33 30 29 33 34 38 36 40 34 30 34 32 31 32 29 32 28 31 33 35 38 40 38 36 38 38 35 34 34 33 33 36 35 34 35 34 34 33 33 33 33 33 32 32 31 30 28 27 27 26 25 25 23 23 22 22 21 21 20 21 22 23 23 22 21 22 23 26 25 25 20 20 22 21 19 20 23 23 22 20 20
nan nan nan nan nan nan nan nan nan nan nan nan nan nan 31 30 30 29 30 30 32 35 33 32 30 30 33 32 33 34 32 33 33 33 35 38 41 38 37 36 36 35 34 35 34 34 35 36 35 34 33 33 32 32 32 33 33 32 32 31 29 28 27 26 26 26 25 24 24 23 23 22 21 21 21 21 21 22 23 22 22 22 22 25 23 24 21 19 19 19 16 18 20 20 20 19 18
nan nan nan nan nan nan nan nan nan nan nan nan nan 32 31 30 29 30 29 30 29 29 28 29 29 nan 27 29 31 33 36 36 37 35 35 38 39 34 34 32 34 33 33 33 33 30 32 35 34 32 31 31 30 31 31 32 32 31 30 29 27 26 26 26 25 25 25 25 24 23 22 21 21 20 19 19 19 18 19 20 22 21 21 20 21 21 20 19 18 18 18 18 18 17 18 18 18
nan nan nan nan nan nan nan nan nan nan nan nan nan 30 32 29 29 31 30 29 30 30 28 26 nan 25 nan 23 28 30 32 34 35 34 35 34 34 31 29 29 28 29 29 27 27 24 25 30 31 30 29 29 28 28 29 30 29 28 27 26 26 26 25 24 24 24 24 24 24 23 22 20 19 19 18 17 16 16 16 18 19 19 19 18 18 19 18 18 18 17 17 18 16 16 16 16 16
nan nan nan nan nan nan nan nan nan nan nan nan nan nan 31 30 31 31 32 32 30 30 27 24 24 25 21 23 21 22 22 27 26 28 28 33 29 27 26 24 24 25 23 22 22 23 24 28 30 29 27 26 26 26 27 27 27 26 26 25 25 24 23 23 22 22 23 23 23 21 20 19 18 18 18 17 16 16 17 17 17 18 18 18 18 18 17 17 17 16 16 16 15 16 15 15 14
nan nan nan nan nan nan nan nan nan nan nan nan nan nan nan 33 34 33 33 33 31 30 29 26 28 30 25 24 24 20 18 17 18 21 26 23 23 22 22 20 20 20 19 19 20 22 23 23 28 27 25 25 25 26 25 24 24 25 26 25 24 22 22 21 20 19 18 17 17 17 18 17 17 16 16 16 16 16 16 16 16 16 16 16 16 16 15 15 15 15 15 14 14 14 13 13 13
nan nan nan nan nan nan nan nan nan nan nan nan nan nan 34 33 33 33 32 33 30 32 28 27 26 27 27 23 23 23 25 19 17 20 21 18 16 19 18 17 19 20 20 19 20 21 21 21 20 22 24 25 27 27 24 23 23 26 25 23 22 20 20 19 18 17 14 11 13 14 15 15 15 15 15 15 15 15 14 14 14 14 14 14 14 14 13 13 13 12 12 12 12 11 11 11 10
nan nan nan nan nan nan nan nan nan nan 36 nan 35 35 33 35 33 33 33 33 30 31 30 26 26 23 20 17 21 23 25 20 18 16 15 15 15 14 16 18 19 20 19 18 20 20 21 20 19 18 20 24 23 24 24 24 25 25 22 21 20 17 15 15 17 13 11 9 10 8 11 11 13 11 12 12 13 13 13 13 12 12 12 11 12 12 11 11 11 11 10 10 10 9 8 8 8
nan nan nan nan nan nan nan nan nan 36 32 34 34 34 33 33 31 31 32 34 30 31 29 27 27 24 24 22 19 20 17 21 21 18 16 16 16 16 17 16 18 17 15 16 18 18 19 18 18 18 20 20 19 18 19 21 20 22 20 18 15 13 12 11 16 9 8 5 8 6 5 7 9 8 8 9 11 11 13 13 12 11 11 11 11 11 11 10 10 9 10 9 9 8 7 7 7
nan nan nan nan nan nan nan nan nan 33 29 33 32 33 32 31 29 31 32 32 30 30 27 30 29 29 24 29 22 16 19 20 20 18 18 21 21 19 16 14 14 12 12 14 16 17 15 13 15 17 17 17 16 15 15 15 19 21 19 16 12 10 10 9 13 11 6 3 8 8 6 7 7 7 7 8 8 10 12 12 11 11 12 12 11 10 10 9 9 8 9 9 9 8 8 8 8
nan nan nan nan nan nan nan nan nan nan nan nan 30 33 34 30 30 30 29 28 29 30 29 27 30 31 28 33 29 24 22 20 18 19 20 22 21 17 14 11 10 10 11 13 13 12 10 10 11 13 14 15 15 14 14 13 16 22 20 15 13 10 11 9 10 10 11 9 7 8 8 8 6 6 7 7 9 10 11 11 10 10 11 11 10 9 9 9 9 8 8 8 9 9 9 8 8
nan nan nan nan nan nan nan nan nan 22 nan 27 28 30 30 29 28 29 27 28 31 29 29 28 28 27 27 28 29 23 19 18 18 19 19 18 17 14 13 11 9 10 10 10 10 10 10 10 10 11 11 12 12 11 13 13 15 17 14 15 16 15 14 14 13 11 10 8 9 8 7 7 7 6 5 8 10 9 10 11 10 10 10 9 9 8 9 9 9 8 8 8 9 9 9 9 9
nan nan nan nan nan nan nan nan nan nan 25 24 27 26 32 30 28 28 29 34 33 30 30 28 31 28 26 24 23 19 17 14 14 16 15 15 13 13 16 13 10 9 9 8 9 10 10 9 10 12 14 12 7 11 11 12 12 14 13 10 9 9 10 9 7 7 7 5 8 7 6 6 6 6 6 9 9 9 8 12 10 10 10 10 10 10 10 10 10 9 9 9 9 9 9 10 10
nan nan nan nan nan nan 12 13 nan 20 20 25 26 27 30 29 28 27 29 30 30 28 27 27 30 27 25 23 19 17 13 12 13 12 12 13 14 16 16 13 11 8 9 8 8 9 8 8 9 11 11 8 6 9 10 10 12 12 12 11 8 8 8 7 5 5 5 5 5 5 6 7 6 6 6 9 8 9 8 11 11 10 11 11 12 10 11 12 12 12 13 13 12 12 11 9 9
nan nan nan nan nan 12 13 10 13 14 22 25 27 26 32 28 30 26 28 30 29 29 25 25 26 24 21 19 18 15 13 12 12 10 11 12 13 14 14 12 9 9 7 7 7 8 10 9 6 8 8 9 5 9 5 7 10 10 9 8 7 6 6 5 5 4 4 5 5 5 6 6 6 4 5 8 6 3 3 7 9 9 9 10 12 9 9 11 12 13 14 15 13 12 12 12 12
nan nan nan nan 12 15 13 16 16 19 20 21 22 22 26 26 28 28 29 30 28 26 24 20 21 19 17 17 16 14 13 13 12 11 11 11 11 10 9 8 7 6 5 6 8 10 9 6 8 9 10 9 4 2 3 8 8 8 7 7 7 6 5 6 5 5 4 3 2 2 2 3 3 2 2 3 3 4 5 7 7 8 9 10 11 12 11 11 13 13 13 13 13 12 nan 12 12
nan nan 9 7 9 15 12 18 20 22 22 24 18 18 16 16 23 26 26 26 24 22 22 24 20 15 13 13 13 13 13 12 12 11 10 9 9 10 9 8 7 6 7 11 9 9 9 7 8 10 8 7 4 5 2 5 7 7 7 7 8 6 7 7 6 5 3 1 1 2 1 1 1 2 3 4 5 6 8 9 10 10 12 12 11 12 12 11 11 11 10 10 8 nan nan nan nan
nan nan 7 8 8 12 9 14 16 20 17 17 14 15 14 16 16 19 22 20 19 20 22 nan nan 14 14 13 12 14 14 12 13 12 11 13 12 10 9 8 9 10 9 9 9 9 11 10 10 5 6 7 5 3 3 6 6 6 7 8 9 7 nan nan 3 1 1 2 2 2 1 1 2 4 5 6 7 8 11 11 12 13 12 11 8 8 7 7 7 6 6 5 5 nan nan nan 5
nan nan nan 9 11 14 10 nan 16 16 16 12 14 nan 15 8 10 12 16 17 nan nan 17 nan 14 14 14 14 13 13 12 12 13 13 13 14 12 10 9 9 6 5 8 9 10 9 8 8 6 nan 3 5 5 3 6 7 6 7 7 8 nan nan nan nan nan nan 1 2 2 1 2 4 5 6 7 8 9 11 12 13 14 12 8 6 3 4 3 3 4 4 4 4 4 5 4 5 5
nan nan nan nan nan 9 11 12 14 15 11 8 12 15 8 10 9 10 15 nan nan 15 16 15 13 15 16 14 14 12 13 14 16 15 16 13 10 8 8 7 7 7 8 9 10 9 6 5 5 3 4 6 5 6 8 7 6 nan nan nan nan nan nan nan nan nan nan 1 3 3 4 7 8 9 10 9 11 13 13 15 13 8 4 2 1 3 nan nan 4 5 nan nan nan 6 6 6 6
nan nan nan nan nan 8 7 11 8 10 6 7 11 nan 6 5 9 13 nan 19 15 14 17 16 14 16 15 14 15 14 14 14 15 14 12 9 8 10 9 8 7 8 6 6 7 6 6 4 4 6 6 6 7 nan nan nan nan nan nan nan nan nan nan nan nan nan nan nan nan nan nan nan nan 11 12 11 nan nan nan nan nan nan nan nan nan nan nan nan nan nan nan nan nan nan nan nan nan
nan nan nan nan 5 7 5 7 nan 2 nan nan nan nan nan 10 12 nan 14 17 14 15 16 16 14 14 15 16 16 16 14 15 13 9 8 8 8 9 8 8 8 7 7 9 8 7 6 7 nan 7 7 6 7 8 nan nan nan nan nan nan nan nan nan nan nan nan nan nan nan nan nan nan nan nan nan nan nan nan nan nan nan nan nan nan nan nan nan nan nan nan nan nan nan nan nan nan nan
nan nan nan nan nan 7 2 1 3 nan nan nan nan nan nan 13 12 12 14 13 13 17 17 16 17 17 17 18 17 14 13 12 10 8 7 8 9 8 8 nan nan nan 8 6 6 5 9 nan nan nan nan 7 8 6 nan nan nan nan nan nan nan nan nan nan nan nan nan nan nan nan nan nan nan nan nan nan nan nan nan nan nan nan nan nan nan nan nan nan nan nan nan nan nan nan nan nan nan
nan nan nan nan nan nan nan 7 9 nan nan 8 nan 2 9 14 13 12 13 11 13 18 18 15 15 15 17 18 15 13 12 9 8 8 9 9 9 7 nan nan nan nan nan nan 6 nan nan nan nan nan nan nan nan nan nan nan nan nan nan nan nan nan nan nan nan nan nan nan nan nan nan nan nan nan nan nan nan nan nan nan nan nan nan nan nan nan nan nan nan nan nan nan nan nan nan nan nan
nan nan nan nan nan nan nan nan nan nan nan 9 8 nan nan nan 12 12 12 11 11 14 17 16 16 16 16 15 14 12 10 9 10 9 9 9 8 nan nan nan nan nan nan nan nan nan nan nan nan nan nan nan nan nan nan nan nan nan nan nan nan nan nan nan nan nan nan nan nan nan nan nan nan nan nan nan nan nan nan nan nan nan nan nan nan nan nan nan nan nan nan nan nan nan nan nan nan
nan nan nan nan nan nan nan 7 nan nan nan nan nan nan nan nan nan 12 11 15 13 12 15 15 15 15 14 13 13 11 10 9 8 9 8 nan nan nan nan nan nan nan nan nan nan nan nan nan nan nan nan nan nan nan nan nan nan nan nan nan nan nan nan nan nan nan nan nan nan nan nan nan nan nan nan nan nan nan nan nan nan nan nan nan nan nan nan nan nan nan nan nan nan nan nan nan nan
nan nan nan nan nan nan nan 10 nan nan nan nan nan nan nan nan nan nan 14 15 nan 11 15 nan nan 14 13 13 12 9 10 11 12 11 9 nan nan nan nan nan nan nan nan nan nan nan nan nan nan nan nan nan nan nan nan nan nan nan nan nan nan nan nan nan nan nan nan nan nan nan nan nan nan nan nan nan nan nan nan nan nan nan nan nan nan nan nan nan nan nan nan nan nan nan nan nan nan
nan nan nan nan nan nan nan nan nan nan nan nan nan nan nan nan nan nan 14 14 13 nan 13 14 nan nan 12 12 11 9 9 12 11 10 nan nan nan nan nan nan nan nan nan nan nan nan nan nan nan nan nan nan nan nan nan nan nan nan nan nan nan nan nan nan nan nan nan nan nan nan nan nan nan nan nan nan nan nan nan nan nan nan nan nan nan nan nan nan nan nan nan nan nan nan nan nan nan
nan nan nan nan nan nan nan nan nan nan nan nan nan nan nan nan nan nan nan nan nan nan 12 12 12 10 10 11 11 10 9 8 7 nan nan nan nan nan nan nan nan nan nan nan nan nan nan nan nan nan nan nan nan nan nan nan nan nan nan nan nan nan nan nan nan nan nan nan nan nan nan nan nan nan nan nan nan nan nan nan nan nan nan nan nan nan nan nan nan nan nan nan nan nan nan nan nan
nan nan nan nan nan nan nan nan nan nan nan nan nan nan nan nan nan nan nan nan 8 9 9 10 10 9 8 10 12 10 8 6 5 4 nan nan nan nan nan nan nan nan nan nan nan nan nan nan nan nan nan nan nan nan nan nan nan nan nan nan nan nan nan nan nan nan nan nan nan nan nan nan nan nan nan nan nan nan nan nan nan nan nan nan nan nan nan nan nan nan nan nan nan nan nan nan nan
nan nan nan nan nan nan nan nan nan nan nan nan nan nan nan nan nan nan nan nan nan 6 nan nan 9 9 9 9 10 8 6 5 nan nan nan nan nan nan nan nan nan nan nan nan nan nan nan nan nan nan nan nan nan nan nan nan nan nan nan nan nan nan nan nan nan nan nan nan nan nan nan nan nan nan nan nan nan nan nan nan nan nan nan nan nan nan nan nan nan nan nan nan nan nan nan nan nan
nan nan nan nan nan nan nan nan nan nan nan nan nan nan nan nan nan nan nan nan nan nan 7 7 8 8 8 8 7 7 nan nan nan nan nan nan nan nan nan nan nan nan nan nan nan nan nan nan nan nan nan nan nan nan nan nan nan nan nan nan nan nan nan nan nan nan nan nan nan nan nan nan nan nan nan nan nan nan nan nan nan nan nan nan nan nan nan nan nan nan nan nan nan nan nan nan nan
nan nan nan nan nan nan nan nan nan nan nan nan nan nan nan nan nan nan nan nan nan nan nan 7 7 7 5 5 5 nan nan nan nan nan nan nan nan nan nan nan nan nan nan nan nan nan nan nan nan nan nan nan nan nan nan nan nan nan nan nan nan nan nan nan nan nan nan nan nan nan nan nan nan nan nan nan nan nan nan nan nan nan nan nan nan nan nan nan nan nan nan nan nan nan nan nan nan
nan nan nan nan nan nan nan nan nan nan nan nan nan nan nan nan nan nan nan nan nan nan nan 7 5 5 4 4 4 nan nan nan nan nan nan nan nan nan nan nan nan nan nan nan nan nan nan nan nan nan nan nan nan nan nan nan nan nan nan nan nan nan nan nan nan nan nan nan nan nan nan nan nan nan nan nan nan nan nan nan nan nan nan nan nan nan nan nan nan nan nan nan nan nan nan nan nan
nan nan nan nan nan nan nan nan nan nan nan nan nan nan nan nan nan nan nan nan nan nan nan 8 7 5 4 3 1 nan nan nan nan nan nan nan nan nan nan nan nan nan nan nan nan nan nan nan nan nan nan nan nan nan nan nan nan nan nan nan nan nan nan nan nan nan nan nan nan nan nan nan nan nan nan nan nan nan nan nan nan nan nan nan nan nan nan nan nan nan nan nan nan nan nan nan nan
nan nan nan nan nan nan nan nan nan nan nan nan nan nan nan nan nan nan nan nan nan nan nan nan nan 8 5 nan nan nan nan nan nan nan nan nan nan nan nan nan nan nan nan nan nan nan nan nan nan nan nan nan nan nan nan nan nan nan nan nan nan nan nan nan nan nan nan nan nan nan nan nan nan nan nan nan nan nan nan nan nan nan nan nan nan nan nan nan nan nan nan nan nan nan nan nan nan
nan nan nan nan nan nan nan nan nan nan nan nan nan nan nan nan nan nan nan nan nan nan nan nan nan nan nan nan nan nan nan nan nan nan nan nan nan nan nan nan nan nan nan nan nan nan nan nan nan nan nan nan nan nan nan nan nan nan nan nan nan nan nan nan nan nan nan nan nan nan nan nan nan nan nan nan nan nan nan nan nan nan nan nan nan nan nan nan nan nan nan nan nan nan nan nan nan
nan nan nan nan nan nan nan nan nan nan nan nan nan nan nan nan nan nan nan nan nan nan nan nan nan nan nan nan nan nan nan nan nan nan nan nan nan nan nan nan nan nan nan nan nan nan nan nan nan nan nan nan nan nan nan nan nan nan nan nan nan nan nan nan nan nan nan nan nan nan nan nan nan nan nan nan nan nan nan nan nan nan nan nan nan nan nan nan nan nan nan nan nan nan nan nan nan
nan nan nan nan nan nan nan nan nan nan nan nan nan nan nan nan nan nan nan nan nan nan nan nan nan nan nan nan nan nan nan nan nan nan nan nan nan nan nan nan nan nan nan nan nan nan nan nan nan nan nan nan nan nan nan nan nan nan nan nan nan nan nan nan nan nan nan nan nan nan nan nan nan nan nan nan nan nan nan nan nan nan nan nan nan nan nan nan nan nan nan nan nan nan nan nan nan
nan nan nan nan nan nan nan nan nan nan nan nan nan nan nan nan nan nan nan nan nan nan nan nan nan nan nan nan nan nan nan nan nan nan nan nan nan nan nan nan nan nan nan nan nan nan nan nan nan nan nan nan nan nan nan nan nan nan nan nan nan nan nan nan nan nan nan nan nan nan nan nan nan nan nan nan nan nan nan nan nan nan nan nan nan nan nan nan nan nan nan nan nan nan nan nan nan
nan nan nan nan nan nan nan nan nan nan nan nan nan nan nan nan nan nan nan nan nan nan nan nan nan nan nan nan nan nan nan nan nan nan nan nan nan nan nan nan nan nan nan nan nan nan nan nan nan nan nan nan nan nan nan nan nan nan nan nan nan nan nan nan nan nan nan nan nan nan nan nan nan nan nan nan nan nan nan nan nan nan nan nan nan nan nan nan nan nan nan nan nan nan nan nan nan
nan nan nan nan nan nan nan nan nan nan nan nan nan nan nan nan nan nan nan nan nan nan nan nan nan nan nan nan nan nan nan nan nan nan nan nan nan nan nan nan nan nan nan nan nan nan nan nan nan nan nan nan nan nan nan nan nan nan nan nan nan nan nan nan nan nan nan nan nan nan nan nan nan nan nan nan nan nan nan nan nan nan nan nan nan nan nan nan nan nan nan nan nan nan nan nan nan
nan nan nan nan nan nan nan nan nan nan nan nan nan nan nan nan nan nan nan nan nan nan nan nan nan nan nan nan nan nan nan nan nan nan nan nan nan nan nan nan nan nan nan nan nan nan nan nan nan nan nan nan nan nan nan nan nan nan nan nan nan nan nan nan nan nan nan nan nan nan nan nan nan nan nan nan nan nan nan nan nan nan nan nan nan nan nan nan nan nan nan nan nan nan nan nan nan
nan nan nan nan nan nan nan nan nan nan nan nan nan nan nan nan nan nan nan nan nan nan nan nan nan nan nan nan nan nan nan nan nan nan nan nan nan nan nan nan nan nan nan nan nan nan nan nan nan nan nan nan nan nan nan nan nan nan nan nan nan nan nan nan nan nan nan nan nan nan nan nan nan nan nan nan nan nan nan nan nan nan nan nan nan nan nan nan nan nan nan nan nan nan nan nan nan
nan nan nan nan nan nan nan nan nan nan nan nan nan nan nan nan nan nan nan nan nan nan nan nan nan nan nan nan nan nan nan nan nan nan nan nan nan nan nan nan nan nan nan nan nan nan nan nan nan nan nan nan nan nan nan nan nan nan nan nan nan nan nan nan nan nan nan nan nan nan nan nan nan nan nan nan nan nan nan nan nan nan nan nan nan nan nan nan nan nan nan nan nan nan nan nan nan
nan nan nan nan nan nan nan nan nan nan nan nan nan nan nan nan nan nan nan nan nan nan nan nan nan nan nan nan nan nan nan nan nan nan nan 5 3 nan nan nan nan nan nan nan nan nan nan nan nan nan nan nan nan nan nan nan nan nan nan nan nan nan nan nan nan nan nan nan nan nan nan nan nan nan nan nan nan nan nan nan nan nan nan nan nan nan nan nan nan nan nan nan nan nan nan nan nan
nan nan nan nan nan nan nan nan nan nan nan nan nan nan nan nan nan nan nan nan nan nan nan nan nan nan nan nan nan nan nan nan nan nan nan 3 2 nan nan nan nan nan nan nan nan nan nan nan nan nan nan nan nan nan nan nan nan nan nan nan nan nan nan nan nan nan nan nan nan nan nan nan nan nan nan nan nan nan nan nan nan nan nan nan nan nan nan nan nan nan nan nan nan nan nan nan nan
nan nan nan nan nan nan nan nan nan nan nan nan nan nan nan nan nan nan nan nan nan nan nan nan nan nan nan nan nan nan nan nan nan nan nan nan 2 nan nan nan nan nan nan nan nan nan nan nan nan nan nan nan nan nan nan nan nan nan nan nan nan nan nan nan nan nan nan nan nan nan nan nan nan nan nan nan nan nan nan nan nan nan nan nan nan nan nan nan nan nan nan nan nan nan nan nan nan
nan nan nan nan nan nan nan nan nan nan nan nan nan nan nan nan nan nan nan nan nan nan nan nan nan nan nan nan nan nan nan nan nan nan nan 6 7 8 nan nan nan nan nan nan nan nan nan nan nan nan nan nan nan nan nan nan nan nan nan nan nan nan nan nan nan nan nan nan nan nan nan nan nan nan nan nan nan nan nan nan nan nan nan nan nan nan nan nan nan nan nan nan nan nan nan nan nan
nan nan nan nan nan nan nan nan nan nan nan nan nan nan nan nan nan nan nan nan nan nan nan nan nan nan nan nan nan nan nan nan nan nan nan nan nan nan nan nan nan nan nan nan nan nan nan nan nan nan nan nan nan nan nan nan nan nan nan nan nan nan nan nan nan nan nan nan nan nan nan nan nan nan nan nan nan nan nan nan nan nan nan nan nan nan nan nan nan nan nan nan nan nan nan nan nan
nan nan nan nan nan nan nan nan nan nan nan nan nan nan nan nan nan nan nan nan nan nan nan nan nan nan nan nan nan nan nan nan nan nan nan nan 8 nan nan nan nan nan nan nan nan nan nan nan nan nan nan nan nan nan nan nan nan nan nan nan nan nan nan nan nan nan nan nan nan nan nan nan nan nan nan nan nan nan nan nan nan nan nan nan nan nan nan nan nan nan nan nan nan nan nan nan nan
nan nan nan nan nan nan nan nan nan nan nan nan nan nan nan nan nan nan nan nan nan nan nan nan nan nan nan nan nan nan nan nan nan nan nan nan nan nan nan nan nan nan nan nan nan nan nan nan nan nan nan nan nan nan nan nan nan nan nan nan nan nan nan nan nan nan nan nan nan nan nan nan nan nan nan nan nan nan nan nan nan nan nan nan nan nan nan nan nan nan nan nan nan nan nan nan nan
nan nan nan nan nan nan nan nan nan nan nan nan nan nan nan nan nan nan nan nan nan nan nan nan nan nan nan nan nan nan nan nan nan nan nan nan nan nan nan nan nan nan nan nan nan nan nan nan nan nan nan nan nan nan nan nan nan nan nan nan nan nan nan nan nan nan nan nan nan nan nan nan nan nan nan nan nan nan nan nan nan nan nan nan nan nan nan nan nan nan nan nan nan nan nan nan nan
Wind_Direction
nan nan nan nan nan nan nan nan nan nan nan nan nan nan nan nan 262 260 258 261 268 270 264 263 259 264 265 260 263 261 252 262 267 275 271 266 266 267 268 273 273 272 273 277 281 283 285 292 293 295 297 296 294 292 290 289 288 285 282 278 276 275 276 278 281 284 286 288 291 292 290 289 288 286 285 284 281 278 275 274 272 266 265 268 276 279 280 280 277 274 273 276 275 276 274 272 269
nan nan nan nan nan nan nan nan nan nan nan nan nan nan 262 263 264 262 260 265 270 273 266 264 265 264 264 264 263 260 251 257 265 270 272 269 269 264 267 269 271 273 279 281 284 288 287 291 290 292 295 292 289 288 288 288 288 286 283 280 279 279 281 283 285 286 288 291 288 291 290 289 287 286 286 282 274 269 269 268 266 266 268 274 273 277 279 275 274 276 275 277 279 278 274 272 269
nan nan nan nan nan nan nan nan nan nan nan nan nan 263 265 263 262 262 261 261 262 260 264 262 265 256 257 257 257 248 260 259 262 266 264 266 267 265 265 267 269 277 284 285 286 288 292 290 282 283 287 284 282 286 285 286 286 285 283 282 281 282 283 284 285 288 290 289 289 286 283 284 284 277 280 283 278 275 270 264 264 265 271 271 271 267 264 264 268 270 275 274 277 276 275 272 271
nan nan nan nan nan nan nan nan nan nan nan nan nan nan 260 260 260 263 262 262 260 260 264 260 257 nan 255 254 253 258 255 257 251 258 266 263 262 267 265 265 276 283 283 283 284 288 291 288 289 292 285 284 286 281 281 279 279 280 280 280 282 282 282 282 282 282 284 286 289 291 287 289 287 287 276 269 272 273 269 264 263 270 270 267 266 263 261 261 261 264 268 271 270 271 272 272 270
nan nan nan nan nan nan nan nan nan nan nan nan nan nan 258 260 260 259 261 258 255 257 258 259 262 254 257 255 252 262 257 251 249 249 260 261 260 263 267 269 276 276 279 282 283 284 287 290 293 291 288 285 279 278 277 276 276 276 277 277 277 279 280 281 280 280 281 282 281 283 287 284 286 283 281 274 273 271 269 264 266 266 266 264 266 269 267 265 263 263 269 269 269 267 266 266 267
nan nan nan nan nan nan nan nan nan nan nan nan nan nan 264 264 262 260 259 255 251 254 256 255 258 251 254 252 256 264 260 259 252 254 257 265 265 268 276 280 277 277 281 281 279 281 281 279 283 282 278 275 273 273 272 273 275 275 275 274 273 272 272 272 274 277 277 276 275 271 272 272 273 274 276 276 271 269 268 269 266 266 268 269 265 270 266 264 264 265 267 269 269 268 265 263 265
nan nan nan nan nan nan nan nan nan nan nan nan nan nan 267 265 261 260 256 258 251 253 246 254 255 260 256 256 263 265 261 260 259 256 261 270 274 275 276 278 278 278 278 277 276 278 281 281 279 275 271 268 270 272 274 275 274 273 272 270 270 270 270 271 273 274 273 271 270 269 270 274 275 276 278 279 277 273 272 273 273 271 268 270 273 274 277 278 273 278 275 266 261 263 269 268 264
nan nan nan nan nan nan nan nan nan nan nan nan nan 266 263 260 260 259 256 258 253 253 247 250 250 nan 259 260 266 265 258 261 258 262 262 269 272 275 276 276 277 276 276 277 276 275 274 273 273 269 266 267 270 272 274 273 271 269 266 265 265 267 269 272 274 274 274 272 269 269 271 273 273 274 276 278 277 274 273 273 276 273 268 265 266 274 280 276 274 272 271 267 264 264 267 269 265
nan nan nan nan nan nan nan nan nan nan nan nan nan 263 266 264 263 265 258 257 260 255 254 255 nan 259 nan 265 266 264 259 257 252 255 266 269 278 277 275 273 275 277 276 275 273 272 272 270 267 263 264 267 269 272 272 272 268 264 262 262 264 266 269 271 272 273 272 270 267 267 266 265 266 270 272 272 272 270 267 267 270 270 268 264 263 266 269 271 273 273 269 269 272 270 266 264 265
nan nan nan nan nan nan nan nan nan nan nan nan nan nan 262 260 261 258 258 253 249 250 249 249 257 258 267 268 271 272 265 262 260 263 268 281 282 278 272 271 271 273 271 266 262 262 261 259 261 262 265 268 270 271 271 267 263 260 260 261 264 267 270 270 271 272 270 267 264 262 261 261 264 268 269 269 269 267 265 263 264 265 265 265 266 266 269 271 273 274 273 271 269 268 265 261 257
nan nan nan nan nan nan nan nan nan nan nan nan nan nan nan 250 248 250 247 252 248 247 246 243 247 263 264 265 273 279 280 272 264 269 266 261 277 273 267 268 270 267 264 256 256 255 255 255 255 262 264 263 266 268 266 262 259 258 258 258 262 268 272 271 269 266 262 261 259 255 254 254 260 265 267 268 270 269 268 268 266 265 263 264 265 265 267 271 272 274 274 273 271 268 264 262 258
nan nan nan nan nan nan nan nan nan nan nan nan nan nan 254 253 252 252 250 251 248 245 245 242 252 257 260 268 274 285 294 285 273 275 270 265 268 262 263 265 261 259 256 255 256 256 258 262 263 258 257 258 263 264 259 256 256 255 254 256 258 259 262 265 266 266 262 254 253 253 253 251 253 250 260 266 268 270 269 268 266 263 261 261 260 261 263 264 268 269 269 270 270 271 271 268 268
nan nan nan nan nan nan nan nan nan nan 261 nan 262 258 255 253 253 253 250 249 245 247 241 239 249 246 256 267 275 284 278 286 284 273 270 267 256 260 265 260 259 257 256 259 262 262 262 265 266 265 259 257 261 259 256 254 259 263 262 265 267 264 252 256 257 256 261 262 257 244 254 260 256 251 256 258 258 261 266 262 260 256 255 255 254 254 254 257 262 264 266 267 268 273 275 276 276
nan nan nan nan nan nan nan nan nan 272 266 264 261 258 255 254 250 250 251 246 243 243 241 235 240 242 243 257 279 285 277 276 279 274 270 260 256 260 265 262 259 261 265 270 270 270 265 264 265 265 266 264 264 258 251 255 265 275 278 278 277 279 275 270 272 264 273 267 270 273 259 254 271 272 262 261 263 255 262 262 258 255 253 251 250 251 254 249 253 258 261 265 274 278 280 282 279
nan nan nan nan nan nan nan nan nan 276 270 269 264 260 256 251 252 248 251 251 244 243 237 238 239 244 252 265 283 289 286 279 263 258 260 263 263 264 262 259 262 267 276 280 279 269 256 255 258 263 263 259 258 263 266 265 269 279 283 282 289 291 288 282 287 306 303 312 282 294 294 279 275 273 279 282 275 266 264 264 259 256 256 255 254 255 256 261 261 264 264 265 274 279 279 279 275
nan nan nan nan nan nan nan nan nan nan nan nan 266 267 259 253 252 251 247 246 248 244 240 241 241 249 256 269 280 291 288 279 254 248 255 257 258 253 247 250 270 278 283 285 280 261 238 240 253 255 252 253 260 263 265 271 273 275 282 290 298 301 291 284 272 274 285 297 288 279 284 300 299 314 273 293 278 272 266 272 264 263 259 256 256 253 254 258 262 261 263 264 264 266 269 268 266
nan nan nan nan nan nan nan nan nan 276 nan 266 267 263 261 257 251 250 245 244 248 243 242 242 247 250 256 266 275 274 274 271 240 242 250 250 245 234 227 236 271 269 269 276 268 240 227 231 238 244 245 254 259 262 268 273 276 274 276 275 272 272 269 263 258 253 263 269 280 284 295 309 312 315 319 310 283 291 271 268 261 259 256 253 250 249 248 251 254 254 252 250 253 251 252 252 256
nan nan nan nan nan nan nan nan nan nan 270 270 268 261 267 260 250 249 244 242 245 244 244 249 252 254 260 261 259 261 257 240 223 238 241 241 235 232 227 240 268 262 256 259 248 241 232 232 234 234 229 216 227 257 267 278 282 283 291 293 293 284 275 264 258 265 257 278 267 285 299 307 303 306 298 287 289 281 272 252 251 251 249 249 249 246 244 246 247 250 251 251 249 248 244 269 274
nan nan nan nan nan nan 284 272 nan 263 260 263 262 260 259 254 249 246 247 249 248 248 246 253 258 260 257 249 244 239 231 221 220 231 239 237 236 235 234 250 258 245 240 241 236 233 236 248 254 254 271 246 172 243 266 277 286 295 296 296 297 285 284 277 273 267 270 274 284 290 295 293 290 287 288 277 278 252 253 246 244 244 246 245 249 248 246 247 250 251 251 256 258 258 276 283 286
nan nan nan nan nan 296 282 285 276 261 277 267 264 256 255 248 248 243 248 253 246 249 253 259 258 256 247 238 228 222 229 224 214 216 223 227 227 232 242 251 242 232 237 246 244 237 241 257 260 257 256 277 271 264 258 285 294 298 297 293 291 288 282 282 278 281 283 282 285 290 290 292 289 292 259 244 255 277 274 253 247 253 255 259 256 283 268 263 260 261 257 258 273 286 284 287 292
nan nan nan nan 291 283 258 267 265 262 265 267 265 265 260 249 246 244 247 249 243 245 238 244 254 251 240 228 217 212 213 208 197 195 216 221 225 227 231 231 231 231 246 248 245 229 237 253 259 262 272 260 227 244 335 307 302 292 285 282 286 289 293 294 296 296 294 279 282 303 297 304 295 286 285 290 295 305 300 300 300 298 300 288 276 290 291 288 281 278 280 277 280 282 nan 287 293
nan nan 276 282 268 265 262 259 254 262 263 269 268 270 264 247 239 234 233 238 238 230 231 237 230 229 233 227 208 202 198 191 194 202 211 218 218 220 215 220 233 244 241 238 222 218 231 245 248 264 280 301 348 290 38 287 284 283 288 294 298 304 308 306 305 301 287 172 100 86 68 226 243 269 281 291 296 306 303 305 304 304 296 294 294 293 290 286 285 287 287 290 294 nan nan nan nan
nan nan 268 255 264 284 259 258 250 261 265 264 259 240 236 229 231 223 231 226 220 222 220 nan nan 207 212 205 194 198 200 203 207 210 215 221 216 216 224 230 236 234 231 227 222 222 224 210 214 224 241 261 265 328 315 280 281 297 304 300 301 308 nan nan 301 294 141 130 129 121 214 250 274 286 288 295 296 309 305 307 305 302 296 293 293 292 289 291 294 297 307 315 331 nan nan nan 331
nan nan nan 257 262 265 263 nan 263 269 273 260 256 nan 240 231 239 203 212 207 nan nan 206 nan 189 201 198 198 194 196 203 217 216 217 218 220 222 225 230 230 224 233 227 209 206 205 205 216 254 nan 18 353 349 309 270 273 281 285 290 291 nan nan nan nan nan nan 150 175 177 201 286 285 287 289 296 298 307 305 304 309 307 299 294 291 308 301 293 299 300 315 320 322 329 340 345 350 350
nan nan nan nan nan 274 271 272 275 278 262 255 256 260 238 222 218 174 195 nan nan 185 187 184 187 198 191 193 191 192 206 211 218 220 217 212 215 232 229 221 218 218 213 197 190 196 195 178 193 224 156 239 251 262 265 270 271 nan nan nan nan nan nan nan nan nan nan 219 236 251 279 281 290 295 296 303 308 301 306 306 304 299 294 285 330 302 nan nan 313 326 nan nan nan 341 345 352 353
nan nan nan nan nan 275 272 271 285 283 250 232 249 nan 220 168 165 179 nan 173 179 174 181 175 182 195 186 179 193 197 201 208 219 221 215 209 216 228 209 204 204 209 187 201 206 175 187 174 177 188 201 231 244 nan nan nan nan nan nan nan nan nan nan nan nan nan nan nan nan nan nan nan nan 297 298 299 nan nan nan nan nan nan nan nan nan nan nan nan nan nan nan nan nan nan nan nan nan
nan nan nan nan 323 288 241 286 nan 233 nan nan nan nan nan 114 126 nan 164 166 171 169 174 167 172 182 179 186 193 195 194 204 213 205 215 222 212 209 198 202 203 192 198 200 194 185 182 208 nan 198 209 229 241 245 nan nan nan nan nan nan nan nan nan nan nan nan nan nan nan nan nan nan nan nan nan nan nan nan nan nan nan nan nan nan nan nan nan nan nan nan nan nan nan nan nan nan nan
nan nan nan nan nan 277 290 184 135 nan nan nan nan nan nan 111 120 145 158 164 167 159 161 172 170 175 176 183 191 190 185 188 190 199 218 217 196 186 195 nan nan nan 210 200 197 192 210 nan nan nan nan 225 233 222 nan nan nan nan nan nan nan nan nan nan nan nan nan nan nan nan nan nan nan nan nan nan nan nan nan nan nan nan nan nan nan nan nan nan nan nan nan nan nan nan nan nan nan
nan nan nan nan nan nan nan 105 111 nan nan 118 nan 109 125 121 131 152 159 158 160 155 158 171 167 168 171 176 185 185 178 181 184 193 190 184 175 172 nan nan nan nan nan nan 224 nan nan nan nan nan nan nan nan nan nan nan nan nan nan nan nan nan nan nan nan nan nan nan nan nan nan nan nan nan nan nan nan nan nan nan nan nan nan nan nan nan nan nan nan nan nan nan nan nan nan nan nan
nan nan nan nan nan nan nan nan nan nan nan 120 118 nan nan nan 129 148 151 145 150 149 149 162 167 167 167 171 175 179 179 179 174 180 182 178 182 nan nan nan nan nan nan nan nan nan nan nan nan nan nan nan nan nan nan nan nan nan nan nan nan nan nan nan nan nan nan nan nan nan nan nan nan nan nan nan nan nan nan nan nan nan nan nan nan nan nan nan nan nan nan nan nan nan nan nan nan
nan nan nan nan nan nan nan 98 nan nan nan nan nan nan nan nan nan 138 138 133 143 150 151 155 163 164 166 168 166 171 172 155 152 164 171 nan nan nan nan nan nan nan nan nan nan nan nan nan nan nan nan nan nan nan nan nan nan nan nan nan nan nan nan nan nan nan nan nan nan nan nan nan nan nan nan nan nan nan nan nan nan nan nan nan nan nan nan nan nan nan nan nan nan nan nan nan nan
nan nan nan nan nan nan nan 103 nan nan nan nan nan nan nan nan nan nan 131 136 nan 153 152 nan nan 161 164 159 160 168 161 156 161 167 177 nan nan nan nan nan nan nan nan nan nan nan nan nan nan nan nan nan nan nan nan nan nan nan nan nan nan nan nan nan nan nan nan nan nan nan nan nan nan nan nan nan nan nan nan nan nan nan nan nan nan nan nan nan nan nan nan nan nan nan nan nan nan
nan nan nan nan nan nan nan nan nan nan nan nan nan nan nan nan nan nan 131 142 144 nan 153 156 nan nan 156 149 147 153 161 160 165 169 nan nan nan nan nan nan nan nan nan nan nan nan nan nan nan nan nan nan nan nan nan nan nan nan nan nan nan nan nan nan nan nan nan nan nan nan nan nan nan nan nan nan nan nan nan nan nan nan nan nan nan nan nan nan nan nan nan nan nan nan nan nan nan
nan nan nan nan nan nan nan nan nan nan nan nan nan nan nan nan nan nan nan nan nan nan 149 151 152 155 147 142 138 149 155 157 163 nan nan nan nan nan nan nan nan nan nan nan nan nan nan nan nan nan nan nan nan nan nan nan nan nan nan nan nan nan nan nan nan nan nan nan nan nan nan nan nan nan nan nan nan nan nan nan nan nan nan nan nan nan nan nan nan nan nan nan nan nan nan nan nan
nan nan nan nan nan nan nan nan nan nan nan nan nan nan nan nan nan nan nan nan 151 145 140 144 148 151 144 136 136 148 150 159 151 158 nan nan nan nan nan nan nan nan nan nan nan nan nan nan nan nan nan nan nan nan nan nan nan nan nan nan nan nan nan nan nan nan nan nan nan nan nan nan nan nan nan nan nan nan nan nan nan nan nan nan nan nan nan nan nan nan nan nan nan nan nan nan nan
nan nan nan nan nan nan nan nan nan nan nan nan nan nan nan nan nan nan nan nan nan 144 nan nan 149 143 142 139 139 141 146 157 nan nan nan nan nan nan nan nan nan nan nan nan nan nan nan nan nan nan nan nan nan nan nan nan nan nan nan nan nan nan nan nan nan nan nan nan nan nan nan nan nan nan nan nan nan nan nan nan nan nan nan nan nan nan nan nan nan nan nan nan nan nan nan nan nan
nan nan nan nan nan nan nan nan nan nan nan nan nan nan nan nan nan nan nan nan nan nan 137 129 138 135 135 135 131 130 nan nan nan nan nan nan nan nan nan nan nan nan nan nan nan nan nan nan nan nan nan nan nan nan nan nan nan nan nan nan nan nan nan nan nan nan nan nan nan nan nan nan nan nan nan nan nan nan nan nan nan nan nan nan nan nan nan nan nan nan nan nan nan nan nan nan nan
nan nan nan nan nan nan nan nan nan nan nan nan nan nan nan nan nan nan nan nan nan nan nan 123 121 133 133 125 117 nan nan nan nan nan nan nan nan nan nan nan nan nan nan nan nan nan nan nan nan nan nan nan nan nan nan nan nan nan nan nan nan nan nan nan nan nan nan nan nan nan nan nan nan nan nan nan nan nan nan nan nan nan nan nan nan nan nan nan nan nan nan nan nan nan nan nan nan
nan nan nan nan nan nan nan nan nan nan nan nan nan nan nan nan nan nan nan nan nan nan nan 114 102 116 124 114 102 nan nan nan nan nan nan nan nan nan nan nan nan nan nan nan nan nan nan nan nan nan nan nan nan nan nan nan nan nan nan nan nan nan nan nan nan nan nan nan nan nan nan nan nan nan nan nan nan nan nan nan nan nan nan nan nan nan nan nan nan nan nan nan nan nan nan nan nan
nan nan nan nan nan nan nan nan nan nan nan nan nan nan nan nan nan nan nan nan nan nan nan 116 121 106 109 100 96 nan nan nan nan nan nan nan nan nan nan nan nan nan nan nan nan nan nan nan nan nan nan nan nan nan nan nan nan nan nan nan nan nan nan nan nan nan nan nan nan nan nan nan nan nan nan nan nan nan nan nan nan nan nan nan nan nan nan nan nan nan nan nan nan nan nan nan nan
nan nan nan nan nan nan nan nan nan nan nan nan nan nan nan nan nan nan nan nan nan nan nan nan nan 149 164 nan nan nan nan nan nan nan nan nan nan nan nan nan nan nan nan nan nan nan nan nan nan nan nan nan nan nan nan nan nan nan nan nan nan nan nan nan nan nan nan nan nan nan nan nan nan nan nan nan nan nan nan nan nan nan nan nan nan nan nan nan nan nan nan nan nan nan nan nan nan
nan nan nan nan nan nan nan nan nan nan nan nan nan nan nan nan nan nan nan nan nan nan nan nan nan nan nan nan nan nan nan nan nan nan nan nan nan nan nan nan nan nan nan nan nan nan nan nan nan nan nan nan nan nan nan nan nan nan nan nan nan nan nan nan nan nan nan nan nan nan nan nan nan nan nan nan nan nan nan nan nan nan nan nan nan nan nan nan nan nan nan nan nan nan nan nan nan
nan nan nan nan nan nan nan nan nan nan nan nan nan nan nan nan nan nan nan nan nan nan nan nan nan nan nan nan nan nan nan nan nan nan nan nan nan nan nan nan nan nan nan nan nan nan nan nan nan nan nan nan nan nan nan nan nan nan nan nan nan nan nan nan nan nan nan nan nan nan nan nan nan nan nan nan nan nan nan nan nan nan nan nan nan nan nan nan nan nan nan nan nan nan nan nan nan
nan nan nan nan nan nan nan nan nan nan nan nan nan nan nan nan nan nan nan nan nan nan nan nan nan nan nan nan nan nan nan nan nan nan nan nan nan nan nan nan nan nan nan nan nan nan nan nan nan nan nan nan nan nan nan nan nan nan nan nan nan nan nan nan nan nan nan nan nan nan nan nan nan nan nan nan nan nan nan nan nan nan nan nan nan nan nan nan nan nan nan nan nan nan nan nan nan
nan nan nan nan nan nan nan nan nan nan nan nan nan nan nan nan nan nan nan nan nan nan nan nan nan nan nan nan nan nan nan nan nan nan nan nan nan nan nan nan nan nan nan nan nan nan nan nan nan nan nan nan nan nan nan nan nan nan nan nan nan nan nan nan nan nan nan nan nan nan nan nan nan nan nan nan nan nan nan nan nan nan nan nan nan nan nan nan nan nan nan nan nan nan nan nan nan
nan nan nan nan nan nan nan nan nan nan nan nan nan nan nan nan nan nan nan nan nan nan nan nan nan nan nan nan nan nan nan nan nan nan nan nan nan nan nan nan nan nan nan nan nan nan nan nan nan nan nan nan nan nan nan nan nan nan nan nan nan nan nan nan nan nan nan nan nan nan nan nan nan nan nan nan nan nan nan nan nan nan nan nan nan nan nan nan nan nan nan nan nan nan nan nan nan
nan nan nan nan nan nan nan nan nan nan nan nan nan nan nan nan nan nan nan nan nan nan nan nan nan nan nan nan nan nan nan nan nan nan nan nan nan nan nan nan nan nan nan nan nan nan nan nan nan nan nan nan nan nan nan nan nan nan nan nan nan nan nan nan nan nan nan nan nan nan nan nan nan nan nan nan nan nan nan nan nan nan nan nan nan nan nan nan nan nan nan nan nan nan nan nan nan
nan nan nan nan nan nan nan nan nan nan nan nan nan nan nan nan nan nan nan nan nan nan nan nan nan nan nan nan nan nan nan nan nan nan nan nan nan nan nan nan nan nan nan nan nan nan nan nan nan nan nan nan nan nan nan nan nan nan nan nan nan nan nan nan nan nan nan nan nan nan nan nan nan nan nan nan nan nan nan nan nan nan nan nan nan nan nan nan nan nan nan nan nan nan nan nan nan
nan nan nan nan nan nan nan nan nan nan nan nan nan nan nan nan nan nan nan nan nan nan nan nan nan nan nan nan nan nan nan nan nan nan nan nan nan nan nan nan nan nan nan nan nan nan nan nan nan nan nan nan nan nan nan nan nan nan nan nan nan nan nan nan nan nan nan nan nan nan nan nan nan nan nan nan nan nan nan nan nan nan nan nan nan nan nan nan nan nan nan nan nan nan nan nan nan
nan nan nan nan nan nan nan nan nan nan nan nan nan nan nan nan nan nan nan nan nan nan nan nan nan nan nan nan nan nan nan nan nan nan nan nan nan nan nan nan nan nan nan nan nan nan nan nan nan nan nan nan nan nan nan nan nan nan nan nan nan nan nan nan nan nan nan nan nan nan nan nan nan nan nan nan nan nan nan nan nan nan nan nan nan nan nan nan nan nan nan nan nan nan nan nan nan
nan nan nan nan nan nan nan nan nan nan nan nan nan nan nan nan nan nan nan nan nan nan nan nan nan nan nan nan nan nan nan nan nan nan nan 358 11 nan nan nan nan nan nan nan nan nan nan nan nan nan nan nan nan nan nan nan nan nan nan nan nan nan nan nan nan nan nan nan nan nan nan nan nan nan nan nan nan nan nan nan nan nan nan nan nan nan nan nan nan nan nan nan nan nan nan nan nan
nan nan nan nan nan nan nan nan nan nan nan nan nan nan nan nan nan nan nan nan nan nan nan nan nan nan nan nan nan nan nan nan nan nan nan 36 30 nan nan nan nan nan nan nan nan nan nan nan nan nan nan nan nan nan nan nan nan nan nan nan nan nan nan nan nan nan nan nan nan nan nan nan nan nan nan nan nan nan nan nan nan nan nan nan nan nan nan nan nan nan nan nan nan nan nan nan nan
nan nan nan nan nan nan nan nan nan nan nan nan nan nan nan nan nan nan nan nan nan nan nan nan nan nan nan nan nan nan nan nan nan nan nan nan 9 nan nan nan nan nan nan nan nan nan nan nan nan nan nan nan nan nan nan nan nan nan nan nan nan nan nan nan nan nan nan nan nan nan nan nan nan nan nan nan nan nan nan nan nan nan nan nan nan nan nan nan nan nan nan nan nan nan nan nan nan
nan nan nan nan nan nan nan nan nan nan nan nan nan nan nan nan nan nan nan nan nan nan nan nan nan nan nan nan nan nan nan nan nan nan nan 4 5 6 nan nan nan nan nan nan nan nan nan nan nan nan nan nan nan nan nan nan nan nan nan nan nan nan nan nan nan nan nan nan nan nan nan nan nan nan nan nan nan nan nan nan nan nan nan nan nan nan nan nan nan nan nan nan nan nan nan nan nan
nan nan nan nan nan nan nan nan nan nan nan nan nan nan nan nan nan nan nan nan nan nan nan nan nan nan nan nan nan nan nan nan nan nan nan nan nan nan nan nan nan nan nan nan nan nan nan nan nan nan nan nan nan nan nan nan nan nan nan nan nan nan nan nan nan nan nan nan nan nan nan nan nan nan nan nan nan nan nan nan nan nan nan nan nan nan nan nan nan nan nan nan nan nan nan nan nan
nan nan nan nan nan nan nan nan nan nan nan nan nan nan nan nan nan nan nan nan nan nan nan nan nan nan nan nan nan nan nan nan nan nan nan nan 5 nan nan nan nan nan nan nan nan nan nan nan nan nan nan nan nan nan nan nan nan nan nan nan nan nan nan nan nan nan nan nan nan nan nan nan nan nan nan nan nan nan nan nan nan nan nan nan nan nan nan nan nan nan nan nan nan nan nan nan nan
nan nan nan nan nan nan nan nan nan nan nan nan nan nan nan nan nan nan nan nan nan nan nan nan nan nan nan nan nan nan nan nan nan nan nan nan nan nan nan nan nan nan nan nan nan nan nan nan nan nan nan nan nan nan nan nan nan nan nan nan nan nan nan nan nan nan nan nan nan nan nan nan nan nan nan nan nan nan nan nan nan nan nan nan nan nan nan nan nan nan nan nan nan nan nan nan nan
nan nan nan nan nan nan nan nan nan nan nan nan nan nan nan nan nan nan nan nan nan nan nan nan nan nan nan nan nan nan nan nan nan nan nan nan nan nan nan nan nan nan nan nan nan nan nan nan nan nan nan nan nan nan nan nan nan nan nan nan nan nan nan nan nan nan nan nan nan nan nan nan nan nan nan nan nan nan nan nan nan nan nan nan nan nan nan nan nan nan nan nan nan nan nan nan nan